Flag for Canada Weather past 2 weeks in Conception Bay South, Newfoundland and Labrador, Canada

Now
52 °F

Passing clouds.


Feels Like: 48 °F
Forecast: 49 / 64 °F
Wind: 12 mph from West

Location: St. John's

Current Time: Sep 17, 2014 at 3:09:27 AM

Latest Report: Sep 17, 2014 at 2:30 AM


Visibility: 15 mi

Pressure: 29.95 "Hg

Humidity: 77%

Dew point: 45 °F

Location of Conception Bay SouthLocation

Historic Weather in Conception Bay South — Graph

°F

Conception Bay South temperature yesterday

Maximum temperature yesterday: 59 °F (at 3:30 PM)
Minimum temperature yesterday: 50 °F (at 2:23 AM)
Average temperature yesterday: 54 °F

Past Weeks' High & Low Weather Summary

 TemperatureHumidityPressure
High77 °F (Sep 6, 1:30 PM)100% (Sep 2, 2:30 AM)30.49 "Hg (Sep 2, 2:30 AM)
Low39 °F (Sep 14, 3:30 AM)42% (Sep 8, 1:30 PM)29.69 "Hg (Sep 12, 4:30 PM)
Average57 °F85%30.05 "Hg
* Reported Sep 2 1:30 AM — Sep 17 1:30 AM, Conception Bay South, Weather by CustomWeather, © 2014

Note: Actual official high and low records may vary slightly from our data, if they occured in-between our weather recording intervals... More about our weather records

Advertising

Conception Bay South weather history for previous 24 hours

 ConditionsComfort  
Time TempWeatherWind HumidityBarometerVisibility
1:30 AM
Sep 17
52 °FOvercast.7 mph82%29.93 "Hg15 mi
12:30 AM52 °FOvercast.10 mph82%29.95 "Hg15 mi
11:30 PM
Sep 16
52 °FMostly cloudy.10 mph82%29.96 "Hg15 mi
10:30 PM52 °FPassing clouds.12 mph82%29.96 "Hg15 mi
9:30 PM50 °FPassing clouds.10 mph88%29.96 "Hg15 mi
8:30 PM52 °FPassing clouds.8 mph82%29.95 "Hg15 mi
7:30 PM54 °FPartly sunny.8 mph77%29.94 "Hg15 mi
6:30 PM55 °FPartly sunny.10 mph72%29.93 "Hg15 mi
5:30 PM57 °FPartly sunny.10 mph63%29.92 "Hg15 mi
4:30 PM59 °FPartly sunny.14 mph55%29.90 "Hg15 mi
3:30 PM59 °FPartly sunny.18 mph59%29.90 "Hg15 mi
2:30 PM57 °FBroken clouds.13 mph72%29.90 "Hg15 mi
1:30 PM57 °FPartly sunny.10 mph72%29.90 "Hg15 mi
12:30 PM57 °FPartly sunny.10 mph77%29.90 "Hg15 mi
11:30 AM57 °FPartly sunny.15 mph77%29.90 "Hg15 mi
10:30 AM57 °FPartly sunny.10 mph82%29.91 "Hg15 mi
9:30 AM55 °FPartly sunny.10 mph82%29.91 "Hg15 mi
8:30 AM54 °FScattered clouds.10 mph94%29.91 "Hg15 mi
7:30 AM54 °FBroken clouds.9 mph94%29.90 "Hg15 mi
6:30 AM52 °FSprinkles. Fog.12 mph100%29.89 "Hg6 mi
5:30 AM52 °FDrizzle. Low clouds.10 mph100%29.87 "Hg12 mi
4:30 AM50 °FLow clouds.10 mph100%29.87 "Hg8 mi
3:30 AM50 °FDrizzle. Fog.14 mph100%29.88 "Hg2 mi
Weather by CustomWeather, © 2014

See weather overviewHow to use our weather pages